sat.trackr.live / text

‹ back to catalog

STARLINK-35654

NORAD 66483 · 2025-262AD

PAYLOAD ACTIVE UNKNOWN

§ Identity

Operator
Country
US
Launch date
2025-11-15
Launch site
AFETR
Launch vehicle
Mass (kg)
RCS (m²)

Purposes: comms

External: N2YO · Heavens-Above · Gunter

§ Orbital elements

Epoch: 2026-09-20T02:40:24.434688Z

Period
94.27 min
Inclination
43.0022°
Eccentricity
0.0001255
Mean motion
15.27589777 rev/d
Perigee alt
482.2 km
Apogee alt
483.9 km
Semi-major
6,861.2 km
B*
3.2440e-4
RAAN
277.9195°
Arg perigee
204.4235°
Mean anomaly
155.6557°
Rev number
4,864

§ Raw data

STARLINK-356541 66483U 25262AD  26263.11139392  .00008678  00000+0  32440-3 0  99962 66483  43.0022 277.9195 0001255 204.4235 155.6557 15.27589777 48647

JSON: /api/v1/satellites/66483 · /tle

For live sub-satellite position, see the globe view (requires WebGL).

§ Visibility from observer

Set your observer location to see the next 7 days of passes ≥ 10°. The values pass through the URL so the page stays shareable.

No JS? Fill the form by hand. The geolocation button needs JavaScript.